Regional Weather Roundup
Issued by NWS Glasgow, MT

Home | Current Version | Previous Version | Text Only | Print | Product List | Glossary On
Versions: 1 2 3 4 5 6 7 8 9 10 11 12 13 14 15 16 17 18 19 20 21 22 23 24 25 26 27 28 29 30 31 32 33 34 35 36 37 38 39 40 41 42 43 44 45 46 47 48 49 50
000
ASUS45 KGGW 040915
RWRGGW
HOURLY REGIONAL WEATHER ROUNDUP FOR NORTHEAST MONTANA
NATIONAL WEATHER SERVICE GLASGOW MONTANA
300 AM MDT SAT JUL 04 2015

NOTE: "FAIR" INDICATES FEW OR NO CLOUDS BELOW 12,000 FEET WITH NO
SIGNIFICANT WEATHER AND/OR OBSTRUCTIONS TO VISISBILITY.

NORTHEAST MONTANA


CITY           SKY/WX    TMP DP  RH WIND       PRES   REMARKS
GLASGOW        CLEAR     64  55  72 E9        29.75S
PLENTYWOOD       N/A     65  61  87 E2          N/A
WOLF POINT     PTCLDY    64  60  87 N5        29.76S FOG
JORDAN           N/A     62  51  67 CALM      29.78F
WINNETT          N/A     61  49  64 SW1         N/A
SIDNEY         CLEAR     64  61  88 S3        29.80F
GLENDIVE       CLEAR     66  59  77 S6        29.82F
MALTA            N/A     70  49  47 NW6G18      N/A
SCOBEY           N/A     64  58  80 CALM      29.79S

FORT PECK REPORTS


CITY           SKY/WX    TMP DP  RH WIND       PRES   REMARKS
FORT PECK        N/A     73  60  63 E13         N/A
THE PINES        N/A     70  57  63 S3          N/A

SOUTHEAST MONTANA


CITY           SKY/WX    TMP DP  RH WIND       PRES   REMARKS
BILLINGS       CLEAR     71  52  50 S6        29.85F
MILES CITY     CLEAR     69  61  75 N5        29.80S
BAKER          PTCLDY    63  58  83 SE8       29.85F
LIVINGSTON     CLEAR     55  46  71 CALM      29.93F

CENTRAL MONTANA


CITY           SKY/WX    TMP DP  RH WIND       PRES   REMARKS
HAVRE          CLEAR     65  47  52 NW3       29.73F
LEWISTOWN      CLEAR     64  50  60 SE3       29.86S
GREAT FALLS    CLEAR     65  45  48 SW12      29.83S
CUT BANK       CLEAR     59  42  53 NW6       29.84S
HELENA         CLEAR     70  40  33 E3        29.89R
BUTTE          CLEAR     55  37  50 S6        30.04R
BOZEMAN        CLEAR     61  46  57 S7        29.93S

WESTERN MONTANA


CITY           SKY/WX    TMP DP  RH WIND       PRES   REMARKS
MISSOULA       CLEAR     67  45  45 NE3       29.89R
KALISPELL      NOT AVBL

NORTH DAKOTA


CITY           SKY/WX    TMP DP  RH WIND       PRES   REMARKS
WILLISTON      PTCLDY    70  61  73 S5        29.80F HAZE
DICKINSON      CLEAR     63  60  90 S8        29.85S FOG
MINOT          CLEAR     64  60  87 CALM      29.81F FOG
BISMARCK       PTCLDY    65  63  93 NE5       29.86F FOG

SOUTHERN SASKATCHEWAN


CITY           SKY/WX    TMP DP  RH WIND       PRES   REMARKS
REGINA         TSTM      64  64 100 N6        29.79F
ESTEVAN        CLEAR     66  64  94 S7        29.79F
SWIFT CURRENT  PTCLDY    64  55  72 SE12G20   29.72F




USA.gov is the U.S. government's official web portal to all federal, state and local government web resources and services.